Powrót do katalogu

STARLINK-6210

AktywnyŁącznośćVLEO
NORAD 56485·PAYLOAD·🇺🇸 United States

Wystrzelony May 10, 2023 z Vandenberg Space Force Base

Loading…

Następne Przeloty (najbliższe 24 godziny)

TLE

ŚwieżeSource: CelesTrak SupGP

Epoka: Sep 14, 2026, 22:31 UTC

1 56485C 23064AP  26257.93868056  .00052494  00000+0  43983-2 0  2579
2 56485  70.0021   7.1128 0003184 272.7161   7.2316 14.98311672    13

Śledź STARLINK-6210 w czasie rzeczywistym z AllMySat

Download on the App Store